• In Italy
  • List of Countries
  • For 7 days
  • Water Temperature
  • Satellite Maps
  • Weather Map
  • Weather Widgets
  • user-avatar
    Login

    Hourly Weather Lesnoy

    Today, 22 October, Monday

    Time Temperature Precipitation Wind Pressure Humidity
    00:00 +1°C° 0 mm 0 mps 759 mmHg 87%
    01:00 +1°C° 0 mm 1 mps 759 mmHg 88%
    02:00 +1°C° 0 mm 1 mps 759 mmHg 89%
    03:00 +1°C° 0 mm 1 mps 759 mmHg 90%
    04:00 +1°C° 0 mm 1 mps 759 mmHg 91%
    05:00 -1°C° 0 mm 2 mps 759 mmHg 92%
    06:00 -1°C° 0 mm 2 mps 759 mmHg 93%
    07:00 +1°C° 0 mm 2 mps 758 mmHg 89%
    08:00 +1°C° 0 mm 3 mps 758 mmHg 84%
    09:00 +2°C° 0 mm 3 mps 758 mmHg 80%
    10:00 +3°C° 0 mm 3 mps 758 mmHg 75%
    11:00 +5°C° 0 mm 4 mps 757 mmHg 71%
    12:00 +6°C° 0 mm 4 mps 757 mmHg 67%
    13:00 +6°C° 0 mm 4 mps 756 mmHg 67%
    14:00 +6°C° 0 mm 4 mps 756 mmHg 67%
    15:00 +6°C° 0 mm 4 mps 755 mmHg 67%
    16:00 +5°C° 0 mm 4 mps 755 mmHg 71%
    17:00 +4°C° 0 mm 4 mps 754 mmHg 75%
    18:00 +4°C° 0 mm 4 mps 753 mmHg 79%
    19:00 +3°C° 0 mm 4 mps 753 mmHg 80%
    20:00 +3°C° 0 mm 4 mps 752 mmHg 82%
    21:00 +2°C° 0 mm 5 mps 752 mmHg 83%
    22:00 +2°C° 0 mm 5 mps 752 mmHg 85%
    23:00 +3°C° 0 mm 4 mps 751 mmHg 87%

    Tomorrow, 23 October, Tuesday

    Time Temperature Precipitation Wind Pressure Humidity
    00:00 +3°C° 0 mm 4 mps 751 mmHg 88%
    01:00 +3°C° 0 mm 4 mps 750 mmHg 90%
    02:00 +3°C° 0 mm 4 mps 750 mmHg 92%
    03:00 +3°C° 0 mm 4 mps 749 mmHg 93%
    04:00 +3°C° 0 mm 4 mps 749 mmHg 94%
    05:00 +4°C° 0 mm 4 mps 748 mmHg 94%
    06:00 +4°C° 0 mm 4 mps 747 mmHg 95%
    07:00 +5°C° 0.1 mm 4 mps 747 mmHg 94%
    08:00 +6°C° 0.1 mm 4 mps 746 mmHg 92%
    09:00 +6°C° 0.1 mm 5 mps 746 mmHg 91%
    10:00 +7°C° 1 mm 5 mps 745 mmHg 91%
    11:00 +7°C° 1 mm 5 mps 745 mmHg 91%
    12:00 +7°C° 1 mm 5 mps 744 mmHg 90%
    13:00 +7°C° 1.3 mm 5 mps 744 mmHg 91%
    14:00 +7°C° 1.3 mm 5 mps 743 mmHg 91%
    15:00 +6°C° 1.3 mm 5 mps 742 mmHg 91%
    16:00 +6°C° 0.8 mm 4 mps 742 mmHg 92%
    17:00 +6°C° 0.8 mm 4 mps 742 mmHg 93%
    18:00 +7°C° 0.8 mm 3 mps 741 mmHg 93%
    19:00 +5°C° 0.2 mm 3 mps 741 mmHg 94%
    20:00 +5°C° 0.2 mm 3 mps 741 mmHg 94%
    21:00 +5°C° 0.2 mm 2 mps 741 mmHg 94%
    22:00 +4°C° 0 mm 2 mps 741 mmHg 95%
    23:00 +4°C° 0 mm 2 mps 741 mmHg 95%

    Day after tomorrow, 24 October, Wednesday

    Time Temperature Precipitation Wind Pressure Humidity
    00:00 +3°C° 0 mm 2 mps 741 mmHg 96%
    01:00 +2°C° 0 mm 2 mps 741 mmHg 96%
    02:00 +2°C° 0 mm 2 mps 741 mmHg 96%
    03:00 +2°C° 0 mm 2 mps 741 mmHg 96%
    04:00 +2°C° 0 mm 2 mps 741 mmHg 96%
    05:00 +2°C° 0 mm 2 mps 740 mmHg 96%
    06:00 +2°C° 0 mm 2 mps 740 mmHg 96%
    07:00 +2°C° 0 mm 3 mps 740 mmHg 93%
    08:00 +2°C° 0 mm 3 mps 740 mmHg 90%
    09:00 +3°C° 0 mm 4 mps 740 mmHg 87%
    10:00 +4°C° 0 mm 4 mps 739 mmHg 82%
    11:00 +5°C° 0 mm 4 mps 739 mmHg 77%
    12:00 +7°C° 0 mm 5 mps 739 mmHg 72%
    13:00 +7°C° 0 mm 4 mps 739 mmHg 72%
    14:00 +7°C° 0 mm 4 mps 739 mmHg 71%
    15:00 +7°C° 0 mm 4 mps 739 mmHg 71%
    16:00 +6°C° 0 mm 4 mps 739 mmHg 74%
    17:00 +6°C° 0 mm 4 mps 739 mmHg 76%
    18:00 +5°C° 0 mm 3 mps 739 mmHg 78%
    19:00 +5°C° 0.1 mm 4 mps 739 mmHg 79%
    20:00 +6°C° 0.1 mm 4 mps 739 mmHg 79%
    21:00 +6°C° 0.1 mm 4 mps 739 mmHg 79%
    22:00 +6°C° 0.6 mm 4 mps 739 mmHg 81%
    23:00 +6°C° 0.6 mm 4 mps 738 mmHg 83%

    25 October, Thursday

    Time Temperature Precipitation Wind Pressure Humidity
    00:00 +6°C° 0.6 mm 4 mps 738 mmHg 84%
    01:00 +6°C° 1.3 mm 4 mps 738 mmHg 86%
    02:00 +6°C° 1.3 mm 4 mps 737 mmHg 88%
    03:00 +6°C° 1.3 mm 5 mps 737 mmHg 90%
    04:00 +6°C° 1.3 mm 5 mps 737 mmHg 90%
    05:00 +7°C° 1.3 mm 5 mps 736 mmHg 91%
    06:00 +7°C° 1.3 mm 5 mps 736 mmHg 91%
    07:00 +8°C° 0.5 mm 5 mps 736 mmHg 91%
    08:00 +8°C° 0.5 mm 6 mps 735 mmHg 91%
    09:00 +9°C° 0.5 mm 6 mps 735 mmHg 91%
    10:00 +9°C° 0.7 mm 6 mps 735 mmHg 90%
    11:00 +9°C° 0.7 mm 5 mps 735 mmHg 89%
    12:00 +9°C° 0.7 mm 5 mps 735 mmHg 87%
    13:00 +9°C° 0.1 mm 5 mps 735 mmHg 87%
    14:00 +9°C° 0.1 mm 5 mps 734 mmHg 87%
    15:00 +9°C° 0.1 mm 5 mps 734 mmHg 87%
    16:00 +9°C° 0.4 mm 5 mps 734 mmHg 88%
    17:00 +8°C° 0.4 mm 5 mps 733 mmHg 89%
    18:00 +8°C° 0.4 mm 5 mps 733 mmHg 90%
    19:00 +8°C° 0.5 mm 5 mps 733 mmHg 90%
    20:00 +8°C° 0.5 mm 6 mps 732 mmHg 89%
    21:00 +9°C° 0.5 mm 6 mps 732 mmHg 89%
    22:00 +8°C° 0.3 mm 5 mps 732 mmHg 85%
    23:00 +8°C° 0.3 mm 5 mps 732 mmHg 81%

    26 October, Friday

    Time Temperature Precipitation Wind Pressure Humidity
    00:00 +7°C° 0.3 mm 4 mps 732 mmHg 77%
    01:00 +6°C° 0 mm 4 mps 733 mmHg 79%
    02:00 +5°C° 0 mm 4 mps 733 mmHg 80%
    03:00 +4°C° 0 mm 4 mps 733 mmHg 82%
    04:00 +4°C° 0 mm 4 mps 733 mmHg 81%
    05:00 +4°C° 0 mm 4 mps 732 mmHg 81%
    06:00 +4°C° 0 mm 4 mps 732 mmHg 81%
    07:00 +3°C° 0 mm 5 mps 732 mmHg 79%
    08:00 +3°C° 0 mm 5 mps 731 mmHg 77%
    09:00 +4°C° 0 mm 6 mps 731 mmHg 75%
    10:00 +4°C° 0.3 mm 7 mps 731 mmHg 74%
    11:00 +4°C° 0.3 mm 7 mps 731 mmHg 72%
    12:00 +4°C° 0.3 mm 7 mps 730 mmHg 70%
    13:00 +4°C° 0.1 mm 7 mps 731 mmHg 72%
    14:00 +4°C° 0.1 mm 7 mps 731 mmHg 74%
    15:00 +4°C° 0.1 mm 7 mps 732 mmHg 75%
    16:00 +3°C° 0.1 mm 7 mps 733 mmHg 75%
    17:00 +3°C° 0.1 mm 7 mps 733 mmHg 75%
    18:00 +3°C° 0.1 mm 7 mps 734 mmHg 75%
    19:00 +2°C° 0 mm 7 mps 735 mmHg 76%
    20:00 +2°C° 0 mm 6 mps 736 mmHg 76%
    21:00 +2°C° 0 mm 6 mps 737 mmHg 77%
    22:00 +1°C° 0 mm 6 mps 738 mmHg 77%
    23:00 +1°C° 0 mm 6 mps 738 mmHg 76%

    27 October, Saturday

    Time Temperature Precipitation Wind Pressure Humidity
    00:00 +1°C° 0 mm 5 mps 739 mmHg 76%
    01:00 0°C° 0 mm 5 mps 740 mmHg 78%
    02:00 -1°C° 0 mm 5 mps 740 mmHg 80%
    03:00 -1°C° 0 mm 5 mps 741 mmHg 82%
    04:00 -1°C° 0 mm 5 mps 741 mmHg 84%
    05:00 -2°C° 0 mm 4 mps 742 mmHg 86%
    06:00 -2°C° 0 mm 4 mps 742 mmHg 87%
    07:00 -2°C° 0 mm 5 mps 743 mmHg 85%
    08:00 -1°C° 0 mm 5 mps 744 mmHg 83%
    09:00 0°C° 0 mm 5 mps 744 mmHg 80%
    10:00 0°C° 0 mm 5 mps 745 mmHg 77%
    11:00 +1°C° 0 mm 5 mps 745 mmHg 73%
    12:00 +2°C° 0 mm 5 mps 745 mmHg 70%
    13:00 +2°C° 0 mm 5 mps 746 mmHg 71%
    14:00 +4°C° 0 mm 4 mps 746 mmHg 72%
    15:00 +4°C° 0 mm 4 mps 746 mmHg 73%
    16:00 +4°C° 0 mm 4 mps 746 mmHg 75%
    17:00 +3°C° 0 mm 4 mps 746 mmHg 77%
    18:00 +3°C° 0 mm 4 mps 746 mmHg 79%
    19:00 +3°C° 0.3 mm 4 mps 745 mmHg 81%
    20:00 +3°C° 0.3 mm 4 mps 745 mmHg 82%
    21:00 +3°C° 0.3 mm 5 mps 745 mmHg 83%
    22:00 +3°C° 0.3 mm 5 mps 744 mmHg 85%
    23:00 +3°C° 0.3 mm 5 mps 744 mmHg 86%
    Show more